Вернуться в каталог

DELTA 1 DEB

АктивенPO
NORAD 26845·DEBRIS·🇺🇸 United States

Запущен Jun 12, 1975 с Vandenberg Space Force Base

Loading…

Ближайшие Пролёты (ближайшие 24 часа)

TLE

СвежийSource: Space-Track

Эпоха: Sep 13, 2026, 15:49 UTC

1 26845U 75052KZ  26256.65958356  .00000192  00000-0  81307-3 0  9996
2 26845  99.1861 143.0986 0439404  52.6581 336.8680 12.65503360469591

Отслеживайте DELTA 1 DEB в реальном времени с AllMySat

Download on the App Store